COSMOS 1375 DEB

Satellite information

Favourite Embed

Satellite Type and Status

DEBRISIN ORBIT

Key statistics

Satellite COSMOS 1375 DEB at a glance.

Uptime

15739

Days in orbit

Revolutions

≈ 13.8

Per day

Orbit

LEO

Low Earth Orbit

Inclination

65.8

Latest

Satellite identification and parameters

Extended collection of information and parameters for COSMOS 1375 DEB.

Object identification

Identified? True

Debris? True

Object name: COSMOS 1375 DEB

International designator: 1982-055AY

Object number (NORAD): 17806

Object ID (CCSDS): 17806

Country: COMMONWEALTH OF INDEPENDENT STATES (CIS)

Current information (Y/N): Y

RCS size: SMALL

Orbital parameters

Period: 104.291 minutes

Inclination: 65.8323 deg

SMA: 7339.355 km

Apoapsis: 1007.077 km

Periapsis: 915.363 km

RAAN: 212.9669 deg

Eccentricy: 0.0062481

Argument of periapsis: 325.6922 deg

Mean anomaly: 142.2636 deg

Mean motion: 13.80752626 rev/day

Mean motion (dot): -0.00000007 rev/day2

B* drag term: 0.000070084 1/REarth

Two-line elements (TLE)

Creation date: July 8, 2025, 5:26 p.m.

Reference frame: TEME

Reference center: EARTH

Epoch: July 8, 2025, 10:41 a.m. UTC

TLE line 0: 0 COSMOS 1375 DEB

TLE line 1: 1 17806U 82055AY 25189.44566031 -.00000007 00000-0 70084-4 0 9997

TLE line 2: 2 17806 65.8323 212.9669 0062481 325.6922 142.2636 13.80752626999276

Live tracking on map

Real-time ground track for satellite COSMOS 1375 DEB.

In-orbit conjunctions

A list of the most updated potential collisions computed for object COSMOS 1375 DEB.

Target Orbit TCA Probability of collision Miss distance Type
SL-8 R/B LEO 2025-05-15 21:56:35 0.000109568 81.0 (m) ROCKET BODY
CZ-6A DEB SSO 2025-02-15 23:01:00 0.0003866013 132.0 (m) DEBRIS

Associated space launch

ASAT target satellite

COSMOS 1375 DEB was lifted into orbit during the mission ‘Kosmos-3M | DS-P1-M 16’, on board a Kosmos-3M space rocket.

The launch took place on June 6, 1982, 5:10 p.m. from 132/2.

For more information about the launch, click the button.

Launch to space Kosmos-3M | DS-P1-M 16
Kosmos-3M | DS-P1-M 16

Agency: N/A

Status: Launch Successful

Launch date: June 6, 1982, 5:10 p.m. UTC

Rocket: Kosmos-3M

Launch pad: 132/2

Location: Plesetsk Cosmodrome, Russian Federation

...

Latest news about this satellite

There are no fresh news available about this satellite. Check back as we update our databases every day.


Newsletter sign-up

Weekly statistics, charts and insights to help you stay on top of the space industry.